Location: *
(45.9500°N, 9.0833°E)
Time: 15:17:04
(UTC+00:00)

SL-16 R/B - Pass Details

Date: 03 March 2021
Orbit: 843 x 846 km, 71.0° (Epoch: 14 April)

Event Time Altitude Azimuth Distance (km) Brightness Sun altitude
Rises 17:46:13 0° 198° (SSW) 3,387 5.6 -6.5°
Reaches altitude 10° 17:48:39 10° 197° (SSW) 2,457 4.9 -7.0°
Maximum altitude 17:54:16 74° 113° (ESE) 879 2.2 -7.9°
Drops below altitude 10° 17:59:56 10° 29° (NNE) 2,475 4.4 -8.9°
Sets 18:02:24 0° 28° (NNE) 3,415 5.1 -9.4°
